"Date","subscriberCount","subscriberChange","viewCount","viewChange","videoCount","videoChange","commentCount","commentChange"
"2020-10-15 00:02:04","3680000","0","2048811171","0","1237","0","0","0"
"2020-10-16 00:02:04","3680000","0","2052712952","3901781","1237","0","0","0"
"2020-10-17 00:02:03","3690000","10000","2055121436","2408484","1238","1","0","0"
"2020-10-18 00:02:04","3690000","0","2058483411","3361975","1238","0","0","0"
"2020-10-19 00:02:04","3690000","0","2061725951","3242540","1238","0","0","0"
"2020-10-20 00:02:04","3700000","10000","2063984448","2258497","1238","0","0","0"
"2020-10-21 00:02:03","3700000","0","2066495945","2511497","1239","1","0","0"
"2020-10-22 00:02:03","3700000","0","2068742066","2246121","1239","0","0","0"
"2020-10-23 00:02:04","3710000","10000","2071307279","2565213","1239","0","0","0"
"2020-10-24 00:02:04","3710000","0","2073878804","2571525","1240","1","0","0"
"2020-10-25 00:02:04","3710000","0","2076137702","2258898","1240","0","0","0"
"2020-10-27 00:02:04","3720000","10000","2081823559","5685857","1240","0","0","0"
"2020-10-28 00:02:03","3720000","0","2084047273","2223714","1241","1","0","0"
"2020-10-29 00:02:03","3730000","10000","2086374130","2326857","1241","0","0","0"
"2020-10-30 00:02:02","3730000","0","2088904510","2530380","1242","1","","0"
"2020-10-31 00:02:03","3730000","0","2091194763","2290253","1242","0","0","0"
"2020-11-01 00:02:03","3740000","10000","2093766951","2572188","1243","1","","0"
"2020-11-02 00:02:02","3740000","0","2097057641","3290690","1243","0","0","0"
"2020-11-03 00:02:03","3750000","10000","2099900573","2842932","1243","0","0","0"
"2020-11-04 00:02:03","3760000","10000","2103246436","3345863","1244","1","0","0"
"2020-11-05 00:02:05","3760000","0","2105228607","1982171","1244","0","0","0"
"2020-11-06 00:02:03","3770000","10000","2107970156","2741549","1244","0","0","0"
"2020-11-07 00:02:04","3770000","0","2110038028","2067872","1245","1","0","0"
"2020-11-08 00:02:04","3780000","10000","2113178806","3140778","1246","1","0","0"
"2020-11-09 00:02:06","3780000","0","2115939626","2760820","1246","0","0","0"
"2020-11-10 00:02:04","3780000","0","2118152545","2212919","1246","0","0","0"
"2020-11-11 00:02:04","3790000","10000","2120306093","2153548","1247","1","0","0"
"2020-11-12 00:02:03","3790000","0","2122563868","2257775","1247","0","","0"
"2020-11-13 00:02:03","3790000","0","2124365902","1802034","1248","1","","0"
"2020-11-14 00:02:02","3790000","0","2126540737","2174835","1248","0","","0"
"2020-11-15 00:02:02","3800000","10000","2129374433","2833696","1249","1","","0"
"2020-11-16 00:02:03","3800000","0","2132352129","2977696","1249","0","","0"
"2020-11-17 00:02:02","3810000","10000","2134615514","2263385","1250","1","","0"
"2020-11-18 00:02:03","3810000","0","2137245482","2629968","1250","0","","0"
"2020-11-19 00:02:02","3810000","0","2139710449","2464967","1251","1","","0"
"2020-11-20 00:02:03","3820000","10000","2142060380","2349931","1251","0","","0"
"2020-11-21 00:02:02","3820000","0","2144654182","2593802","1252","1","","0"
"2020-11-22 00:02:02","3820000","0","2147423681","2769499","1252","0","","0"
"2020-11-23 00:02:03","3830000","10000","2150036952","2613271","1253","1","","0"
"2020-11-24 00:02:02","3830000","0","2152345125","2308173","1253","0","","0"
"2020-11-25 00:02:02","3830000","0","2154176613","1831488","1254","1","","0"
"2020-11-26 00:02:02","3830000","0","2156295768","2119155","1254","0","","0"
"2020-11-27 00:02:03","3830000","0","2158366801","2071033","1255","1","","0"
"2020-11-28 00:02:02","3840000","10000","2160584211","2217410","1255","0","","0"
"2020-11-29 00:02:02","3840000","0","2163246617","2662406","1255","0","","0"
"2020-11-30 00:02:03","3840000","0","2166085882","2839265","1255","0","","0"
"2020-12-01 00:02:02","3840000","0","2168071943","1986061","1255","0","","0"
"2020-12-02 00:02:03","3840000","0","2169973961","1902018","1256","1","","0"
"2020-12-03 00:02:02","3850000","10000","2171869265","1895304","1256","0","","0"
"2020-12-04 00:02:03","3850000","0","2174039881","2170616","1257","1","","0"
"2020-12-05 00:02:05","3850000","0","2175758366","1718485","1258","1","","0"
"2020-12-06 00:02:03","3850000","0","2178242148","2483782","1259","1","","0"
"2020-12-07 00:02:02","3850000","0","2180728326","2486178","1259","0","","0"
"2020-12-08 00:02:03","3860000","10000","2182473559","1745233","1259","0","","0"
"2020-12-09 00:02:03","3860000","0","2184605653","2132094","1260","1","","0"
"2020-12-10 00:02:03","3860000","0","2186549921","1944268","1261","1","","0"
"2020-12-11 00:02:03","3860000","0","2188228720","1678799","1262","1","","0"
"2020-12-12 00:02:03","3860000","0","2189749803","1521083","1263","1","","0"
"2020-12-13 00:02:03","3860000","0","2191900266","2150463","1264","1","","0"
"2020-12-14 00:02:04","3870000","10000","2193777928","1877662","1264","0","","0"
"2020-12-15 00:02:04","3870000","0","2195349949","1572021","1265","1","","0"
"2020-12-16 00:02:03","3870000","0","2196780433","1430484","1266","1","","0"
"2020-12-17 00:02:03","3870000","0","2198229398","1448965","1267","1","","0"
"2020-12-18 00:02:03","3870000","0","2199988714","1759316","1268","1","","0"
"2020-12-19 00:02:04","3870000","0","2201373435","1384721","1268","0","","0"
"2020-12-20 00:02:03","3880000","10000","2203418174","2044739","1269","1","","0"
"2020-12-21 00:02:03","3880000","0","2205341458","1923284","1267","-2","","0"
"2020-12-22 00:02:03","3880000","0","2206497778","1156320","1268","1","","0"
"2020-12-23 00:02:02","3880000","0","2207930408","1432630","1269","1","","0"
"2020-12-24 00:02:04","3880000","0","2209594143","1663735","1270","1","","0"
"2020-12-25 00:02:03","3880000","0","2211556651","1962508","1271","1","","0"
"2020-12-26 00:02:03","3890000","10000","2213421504","1864853","1272","1","","0"
"2020-12-27 00:02:03","3890000","0","2215684473","2262969","1273","1","","0"
"2020-12-28 00:02:04","3890000","0","2218100182","2415709","1273","0","","0"
"2020-12-29 00:02:03","3900000","10000","2220143691","2043509","1274","1","","0"
"2020-12-30 00:02:03","3900000","0","2222660496","2516805","1275","1","","0"
"2020-12-31 00:02:02","3900000","0","2225426510","2766014","1276","1","","0"
"2021-01-01 00:02:03","3910000","10000","2228614262","3187752","1276","0","","0"
"2021-01-02 00:02:04","3910000","0","2231922303","3308041","1277","1","","0"
"2021-01-03 00:02:04","3920000","10000","2235165392","3243089","1277","0","","0"
"2021-01-04 00:02:04","3930000","10000","2238377490","3212098","1278","1","","0"
"2021-01-05 00:02:05","3930000","0","2240986300","2608810","1279","1","","0"
"2021-01-06 00:02:03","3930000","0","2243321655","2335355","1280","1","","0"
"2021-01-07 00:02:02","3940000","10000","2245517101","2195446","1281","1","","0"
"2021-01-08 00:02:02","3940000","0","2247903648","2386547","1282","1","","0"
"2021-01-09 00:02:02","3950000","10000","2250896678","2993030","1283","1","","0"
"2021-01-10 00:02:02","3950000","0","2254671500","3774822","1283","0","","0"
"2021-01-11 00:02:02","3960000","10000","2258232091","3560591","1284","1","","0"
"2021-01-12 00:02:03","3960000","0","2261375130","3143039","1283","-1","","0"
"2021-01-13 00:02:02","3970000","10000","2263947148","2572018","1284","1","","0"
"2021-01-14 00:02:02","3970000","0","2266222281","2275133","1285","1","","0"
"2021-01-15 00:02:03","3980000","10000","2268412439","2190158","1285","0","","0"
"2021-01-16 00:02:02","3980000","0","2270728189","2315750","1285","0","","0"
"2021-01-17 00:02:02","3990000","10000","2273371616","2643427","1286","1","","0"
"2021-01-18 00:02:03","3990000","0","2276747667","3376051","1286","0","","0"
"2021-01-19 00:02:02","4000000","10000","2279245423","2497756","1287","1","","0"
"2021-01-20 00:02:02","4000000","0","2281682456","2437033","1287","0","","0"
"2021-01-21 00:02:02","4010000","10000","2284404403","2721947","1288","1","","0"
"2021-01-22 00:02:02","4010000","0","2286917948","2513545","1288","0","","0"
"2021-01-23 00:02:03","4020000","10000","2289802237","2884289","1289","1","","0"
"2021-01-24 00:02:02","4020000","0","2292876740","3074503","1290","1","","0"
"2021-01-25 00:02:02","4030000","10000","2295996336","3119596","1290","0","","0"
"2021-01-26 00:02:02","4040000","10000","2298428341","2432005","1291","1","","0"
"2021-01-27 00:02:03","4040000","0","2301058843","2630502","1291","0","","0"
"2021-01-28 00:02:02","4050000","10000","2303493346","2434503","1292","1","","0"
"2021-01-29 00:02:03","4050000","0","2306509914","3016568","1292","0","","0"
"2021-01-30 00:02:02","4060000","10000","2309545574","3035660","1293","1","","0"
"2021-01-31 00:02:02","4070000","10000","2313021457","3475883","1293","0","","0"
"2021-02-01 00:02:03","4070000","0","2316157675","3136218","1294","1","","0"
"2021-02-02 00:02:02","4080000","10000","2318792914","2635239","1295","1","","0"
"2021-02-03 00:02:03","4080000","0","2321385538","2592624","1295","0","","0"
"2021-02-04 00:02:03","4090000","10000","2324151772","2766234","1296","1","","0"
"2021-02-05 00:02:03","4090000","0","2326809462","2657690","1296","0","","0"
"2021-02-06 00:02:03","4100000","10000","2329536858","2727396","1297","1","","0"
"2021-02-07 00:02:02","4100000","0","2332300041","2763183","1298","1","","0"
"2021-02-08 00:02:03","4110000","10000","2335043655","2743614","1298","0","","0"
"2021-02-09 00:02:02","4110000","0","2337133895","2090240","1299","1","","0"
"2021-02-10 00:02:03","4120000","10000","2339470664","2336769","1299","0","","0"
"2021-02-11 00:02:02","4120000","0","2341275935","1805271","1299","0","","0"
"2021-02-12 00:02:02","4120000","0","2343830683","2554748","1300","1","","0"
"2021-02-13 00:02:02","4120000","0","2345421778","1591095","1300","0","","0"
"2021-02-14 00:02:03","4130000","10000","2347390707","1968929","1301","1","","0"
"2021-02-15 00:02:02","4130000","0","2348984107","1593400","1301","0","","0"
"2021-02-16 00:02:02","4130000","0","2351192717","2208610","1302","1","","0"
"2021-02-17 00:02:02","4130000","0","2352983315","1790598","1302","0","","0"
"2021-02-18 00:02:02","4140000","10000","2354810062","1826747","1303","1","","0"
"2021-02-19 00:02:02","4140000","0","2356669047","1858985","1303","0","","0"
"2021-02-20 00:02:03","4140000","0","2358563203","1894156","1304","1","","0"
"2021-02-21 00:02:02","4150000","10000","2360900474","2337271","1305","1","","0"
"2021-02-22 00:02:03","4150000","0","2363033034","2132560","1305","0","","0"
"2021-02-23 00:02:02","4150000","0","2365040136","2007102","1306","1","","0"
"2021-02-24 00:02:02","4150000","0","2367344789","2304653","1306","0","","0"
"2021-02-25 00:02:02","4160000","10000","2369077206","1732417","1307","1","","0"
"2021-02-26 00:02:03","4160000","0","2370795677","1718471","1307","0","","0"
"2021-02-27 00:02:02","4160000","0","2372656919","1861242","1307","0","","0"
"2021-02-28 00:02:02","4170000","10000","2374847613","2190694","1308","1","","0"
"2021-03-01 00:02:02","4170000","0","2376979945","2132332","1309","1","","0"
"2021-03-02 00:02:03","4170000","0","2378556678","1576733","1310","1","","0"
"2021-03-03 00:02:02","4170000","0","2380259289","1702611","1310","0","","0"
"2021-03-04 00:02:02","4180000","10000","2382215484","1956195","1311","1","","0"
"2021-03-05 00:02:02","4180000","0","2382666149","450665","1311","0","","0"
"2021-03-06 00:02:02","4180000","0","2384552330","1886181","1312","1","","0"
"2021-03-07 00:02:02","4180000","0","2386412692","1860362","1313","1","","0"
"2021-03-08 00:02:02","4190000","10000","2388661521","2248829","1313","0","","0"
"2021-03-09 00:02:02","4190000","0","2390836659","2175138","1314","1","","0"
"2021-03-10 00:02:02","4190000","0","2392551814","1715155","1314","0","","0"
"2021-03-11 00:02:02","4190000","0","2394335828","1784014","1315","1","","0"
"2021-03-12 00:02:02","4200000","10000","2396000438","1664610","1316","1","","0"
"2021-03-13 00:02:02","4200000","0","2397691389","1690951","1317","1","","0"
"2021-03-14 00:02:03","4200000","0","2399455569","1764180","1318","1","","0"
"2021-03-15 00:02:02","4200000","0","2401386322","1930753","1318","0","","0"
"2021-03-16 00:02:01","4200000","0","2403227484","1841162","1319","1","","0"
"2021-03-17 00:02:02","4210000","10000","2404673587","1446103","1320","1","","0"
"2021-03-18 00:02:02","4210000","0","2405993651","1320064","1321","1","","0"
"2021-03-19 00:02:02","4210000","0","2407796090","1802439","1322","1","","0"
"2021-03-20 00:02:02","4210000","0","2409458732","1662642","1323","1","","0"
"2021-03-21 00:02:02","4220000","10000","2411524333","2065601","1324","1","","0"
"2021-03-22 00:02:02","4220000","0","2413663211","2138878","1324","0","","0"
"2021-03-23 00:02:03","4220000","0","2416095001","2431790","1325","1","","0"
"2021-03-24 00:02:02","4230000","10000","2417975165","1880164","1326","1","","0"
"2021-03-25 00:02:02","4230000","0","2419761814","1786649","1327","1","","0"
"2021-03-26 00:02:02","4230000","0","2421612835","1851021","1328","1","","0"
"2021-03-27 00:02:01","4230000","0","2423201527","1588692","1329","1","","0"
"2021-03-28 00:02:03","4240000","10000","2425298301","2096774","1329","0","","0"
"2021-03-29 00:02:02","4240000","0","2427342656","2044355","1329","0","","0"
"2021-03-30 00:02:02","4240000","0","2429498821","2156165","1330","1","","0"
"2021-03-31 00:02:02","4240000","0","2431309811","1810990","1331","1","","0"
"2021-04-01 00:02:02","4250000","10000","2433042652","1732841","1332","1","","0"
"2021-04-02 00:02:02","4250000","0","2434873663","1831011","1332","0","","0"
"2021-04-03 00:02:02","4250000","0","2436848950","1975287","1333","1","","0"
"2021-04-04 00:02:02","4260000","10000","2439106703","2257753","1334","1","","0"
"2021-04-05 00:02:02","4260000","0","2441760771","2654068","1334","0","","0"
"2021-04-06 00:02:02","4260000","0","2443964680","2203909","1335","1","","0"
"2021-04-07 00:02:02","4270000","10000","2446312186","2347506","1336","1","","0"
"2021-04-08 00:02:03","4270000","0","2448314185","2001999","1337","1","","0"
"2021-04-09 00:02:02","4270000","0","2450141795","1827610","1337","0","","0"
"2021-04-10 00:02:02","4270000","0","2451975587","1833792","1338","1","","0"
"2021-04-11 00:02:03","4280000","10000","2453814027","1838440","1338","0","","0"
"2021-04-12 00:02:02","4280000","0","2455988000","2173973","1339","1","","0"
"2021-04-13 00:02:03","4280000","0","2457674221","1686221","1340","1","","0"
"2021-04-14 00:02:03","4290000","10000","2460170662","2496441","1340","0","","0"
"2021-04-15 00:02:03","4290000","0","2462102498","1931836","1341","1","","0"
"2021-04-16 00:02:03","4290000","0","2464124484","2021986","1341","0","","0"
"2021-04-17 00:02:03","4290000","0","2465937376","1812892","1342","1","","0"
"2021-04-18 00:02:03","4300000","10000","2468070018","2132642","1343","1","","0"
"2021-04-19 00:02:03","4300000","0","2470135426","2065408","1343","0","","0"
"2021-04-20 00:02:03","4300000","0","2472270771","2135345","1344","1","","0"
"2021-04-21 00:02:02","4300000","0","2473946151","1675380","1345","1","","0"
"2021-04-22 00:02:02","4310000","10000","2475563522","1617371","1346","1","","0"
"2021-04-23 00:02:03","4310000","0","2477205306","1641784","1346","0","","0"
"2021-04-24 00:02:03","4310000","0","2478917775","1712469","1347","1","","0"
"2021-04-25 00:02:03","4310000","0","2480585645","1667870","1348","1","","0"
"2021-04-26 00:02:04","4320000","10000","2482542736","1957091","1348","0","","0"
"2021-04-27 00:02:02","4320000","0","2484482219","1939483","1349","1","","0"
"2021-04-28 00:02:02","4320000","0","2486605634","2123415","1350","1","","0"
"2021-04-29 00:02:03","4320000","0","2488282004","1676370","1351","1","","0"
"2021-04-30 00:02:02","4330000","10000","2489985389","1703385","1352","1","","0"
"2021-05-01 00:02:04","4330000","0","2491969422","1984033","1353","1","","0"
"2021-05-02 00:02:02","4330000","0","2493590694","1621272","1353","0","","0"
"2021-05-03 00:02:04","4330000","0","2495540940","1950246","1354","1","","0"
"2021-05-04 00:02:03","4340000","10000","2497025710","1484770","1354","0","","0"
"2021-05-05 00:02:03","4340000","0","2499003162","1977452","1355","1","","0"
"2021-05-06 00:02:03","4340000","0","2500761359","1758197","1355","0","","0"
"2021-05-07 00:02:03","4340000","0","2502583865","1822506","1356","1","","0"
"2021-05-08 00:02:03","4340000","0","2503912585","1328720","1357","1","","0"
"2021-05-09 00:02:02","4350000","10000","2505384078","1471493","1358","1","","0"
"2021-05-10 00:02:04","4350000","0","2507251434","1867356","1358","0","","0"
"2021-05-11 00:02:03","4350000","0","2509203747","1952313","1359","1","","0"
"2021-05-12 00:02:03","4350000","0","2510669321","1465574","1359","0","","0"
"2021-05-13 00:02:02","4360000","10000","2512204785","1535464","1360","1","","0"
"2021-05-14 00:02:03","4360000","0","2513745412","1540627","1361","1","","0"
"2021-05-15 00:02:03","4360000","0","2515220235","1474823","1362","1","","0"
"2021-05-16 00:02:04","4360000","0","2516937109","1716874","1362","0","","0"
"2021-05-17 00:02:03","4360000","0","2518796084","1858975","1362","0","","0"
"2021-05-18 00:02:04","4370000","10000","2520676053","1879969","1363","1","","0"
"2021-05-19 00:02:02","4370000","0","2522209300","1533247","1363","0","","0"
"2021-05-20 00:02:02","4370000","0","2523722125","1512825","1364","1","","0"
"2021-05-21 00:02:03","4370000","0","2525260926","1538801","1364","0","","0"
"2021-05-22 00:02:03","4370000","0","2526718009","1457083","1365","1","","0"
"2021-05-23 00:02:04","4380000","10000","2528272329","1554320","1366","1","","0"
"2021-05-24 00:02:03","4380000","0","2530406671","2134342","1366","0","","0"
"2021-05-25 00:02:03","4380000","0","2532284149","1877478","1367","1","","0"
"2021-05-26 00:02:02","4380000","0","2534408163","2124014","1368","1","","0"
"2021-05-27 00:02:03","4380000","0","2535850087","1441924","1369","1","","0"
"2021-05-28 00:02:03","4390000","10000","2537347262","1497175","1370","1","","0"
"2021-05-29 00:02:03","4390000","0","2538762080","1414818","1371","1","","0"
"2021-05-30 00:02:04","4390000","0","2540326171","1564091","1371","0","","0"
"2021-05-31 00:02:02","4390000","0","2542453432","2127261","1371","0","","0"
"2021-06-01 00:02:03","4390000","0","2544318199","1864767","1372","1","","0"
"2021-06-02 00:02:02","4400000","10000","2546364520","2046321","1373","1","","0"
"2021-06-03 00:02:02","4400000","0","2548036494","1671974","1374","1","","0"
"2021-06-04 00:02:02","4400000","0","2549920527","1884033","1375","1","","0"
"2021-06-05 00:02:02","4400000","0","2551589321","1668794","1376","1","","0"
"2021-06-06 00:02:02","4410000","10000","2553429474","1840153","1376","0","","0"
"2021-06-07 00:02:02","4410000","0","2555363288","1933814","1376","0","","0"
"2021-06-08 00:02:02","4410000","0","2557258620","1895332","1377","1","","0"
"2021-06-09 00:02:01","4410000","0","2558622849","1364229","1378","1","","0"
"2021-06-10 00:02:02","4420000","10000","2560049029","1426180","1379","1","","0"
"2021-06-11 00:02:03","4420000","0","2561619756","1570727","1380","1","","0"
"2021-06-12 00:02:03","4420000","0","2563206969","1587213","1381","1","","0"
"2021-06-13 00:02:03","4420000","0","2564873960","1666991","1382","1","","0"
"2021-06-14 00:02:02","4430000","10000","2567035192","2161232","1382","0","","0"
"2021-06-15 00:02:02","4430000","0","2569273327","2238135","1383","1","","0"
"2021-06-16 00:02:02","4430000","0","2570968282","1694955","1384","1","","0"
"2021-06-17 00:02:02","4430000","0","2572600075","1631793","1385","1","","0"
"2021-06-18 00:02:02","4430000","0","2574188390","1588315","1385","0","","0"
"2021-06-19 00:02:02","4440000","10000","2575517212","1328822","1386","1","","0"
"2021-06-20 00:02:02","4440000","0","2576813389","1296177","1387","1","","0"
"2021-06-21 00:02:02","4440000","0","2578317765","1504376","1387","0","","0"
"2021-06-22 00:02:02","4440000","0","2579663301","1345536","1388","1","","0"
"2021-06-23 00:02:03","4440000","0","2580713259","1049958","1388","0","","0"
"2021-06-24 00:02:02","4440000","0","2581771445","1058186","1389","1","","0"
"2021-06-25 00:02:02","4440000","0","2582993765","1222320","1389","0","","0"
"2021-06-26 00:02:03","4440000","0","2584125575","1131810","1390","1","","0"
"2021-06-27 00:02:03","4450000","10000","2585374471","1248896","1390","0","","0"
"2021-06-28 00:02:03","4450000","0","2586827032","1452561","1390","0","","0"
"2021-06-29 00:02:03","4450000","0","2588510382","1683350","1391","1","","0"
"2021-06-30 00:02:02","4450000","0","2589749388","1239006","1391","0","","0"
"2021-07-01 00:02:03","4450000","0","2591225215","1475827","1392","1","","0"
"2021-07-02 00:02:03","4450000","0","2592583685","1358470","1392","0","","0"
"2021-07-03 00:02:04","4460000","10000","2594009996","1426311","1394","2","","0"
"2021-07-04 00:02:03","4460000","0","2595330313","1320317","1395","1","","0"
"2021-07-05 00:02:03","4460000","0","2596827326","1497013","1397","2","","0"
"2021-07-06 00:02:04","4460000","0","2597666117","838791","1398","1","","0"
"2021-07-07 00:02:03","4460000","0","2599262840","1596723","1400","2","","0"
"2021-07-08 00:02:04","4460000","0","2600300723","1037883","1400","0","","0"
"2021-07-09 00:02:04","4460000","0","2601486926","1186203","1402","2","","0"
"2021-07-10 00:02:03","4460000","0","2602756817","1269891","1403","1","","0"
"2021-07-11 00:02:03","4460000","0","2603946565","1189748","1403","0","","0"
"2021-07-12 00:02:02","4460000","0","2605512414","1565849","1405","2","","0"
"2021-07-13 00:02:02","4470000","10000","2606957998","1445584","1406","1","","0"
"2021-07-14 00:02:03","4470000","0","2608266934","1308936","1408","2","","0"
"2021-07-15 00:02:03","4470000","0","2609409631","1142697","1409","1","","0"
"2021-07-16 00:02:03","4470000","0","2610598020","1188389","1411","2","","0"
"2021-07-17 00:02:02","4470000","0","2611801441","1203421","1412","1","","0"
"2021-07-18 00:02:02","4470000","0","2613171638","1370197","1413","1","","0"
"2021-07-19 00:02:03","4470000","0","2614869202","1697564","1415","2","","0"
"2021-07-20 00:02:03","4470000","0","2616572009","1702807","1416","1","","0"
"2021-07-21 00:02:02","4470000","0","2618065224","1493215","1418","2","","0"
"2021-07-22 00:02:02","4470000","0","2619544992","1479768","1419","1","","0"
"2021-07-23 00:02:03","4480000","10000","2620904114","1359122","1420","1","","0"
"2021-07-24 00:02:02","4480000","0","2622642601","1738487","1421","1","","0"
"2021-07-25 00:02:03","4480000","0","2624288657","1646056","1422","1","","0"
"2021-07-26 00:02:02","4480000","0","2625994009","1705352","1424","2","","0"
"2021-07-27 00:02:02","4480000","0","2627767218","1773209","1425","1","","0"
"2021-07-28 00:02:03","4480000","0","2629281913","1514695","1426","1","","0"
"2021-07-29 00:02:02","4480000","0","2630747789","1465876","1428","2","","0"
"2021-07-30 00:02:02","4480000","0","2632251678","1503889","1429","1","","0"
"2021-07-31 00:02:03","4480000","0","2633768840","1517162","1430","1","","0"
"2021-08-01 00:02:02","4490000","10000","2635462487","1693647","1431","1","","0"
"2021-08-02 00:02:02","4490000","0","2637388971","1926484","1432","1","","0"
"2021-08-03 00:02:02","4490000","0","2639216036","1827065","1433","1","","0"
"2021-08-04 00:02:03","4490000","0","2640847766","1631730","1434","1","","0"
"2021-08-05 00:02:02","4490000","0","2642215678","1367912","1435","1","","0"
"2021-08-06 00:02:02","4490000","0","2643877164","1661486","1436","1","","0"
"2021-08-07 00:02:02","4490000","0","2645050925","1173761","1437","1","","0"
"2021-08-08 00:02:02","4490000","0","2647328302","2277377","1438","1","","0"
"2021-08-09 00:02:02","4500000","10000","2649296925","1968623","1439","1","","0"
"2021-08-10 00:02:03","4500000","0","2651157881","1860956","1441","2","","0"
"2021-08-11 00:02:03","4500000","0","2651157881","0","1442","1","","0"
"2021-08-12 00:02:02","4500000","0","2654298245","3140364","1445","3","","0"
"2021-08-13 00:02:02","4500000","0","2655573084","1274839","1446","1","","0"
"2021-08-14 00:02:03","4500000","0","2656920032","1346948","1447","1","","0"
"2021-08-15 00:02:03","4500000","0","2658385467","1465435","1447","0","","0"
"2021-08-16 00:02:03","4500000","0","2659869755","1484288","1448","1","","0"